Location: La Bastide
(43.1661°N, 1.2755°E)
Time: 17:31:25
(UTC+00:00)

ISS - Pass Details

Date: 22 February 2026
Orbit: 416 x 427 km, 51.6° (Epoch: 6 March)

Event Time Altitude Azimuth Distance (km) Brightness Sun altitude
Exits shadow 05:34:04 13° 321° (NW) 1,305 -1.6 -13.2°
Maximum altitude 05:35:50 19° 359° (N) 1,074 -1.7 -12.9°
Drops below altitude 10° 05:38:18 10° 46° (NE) 1,494 -0.3 -12.4°
Sets 05:40:49 0° 66° (ENE) 2,357 1.3 -12.0°
